Regional Weather Roundup
Issued by NWS

Home | Current Version | Previous Version | Graphics & Text | Print | Product List | Glossary On
Versions: 1 2 3 4 5 6 7 8 9 10 11 12 13 14 15 16 17 18 19 20 21 22 23 24 25 26 27 28 29 30 31 32 33 34 35 36 37 38 39 40 41 42 43 44 45 46 47 48 49 50
244
ASUS43 KLSX 211257
RWRMO

WEATHER SUMMARY FOR MISSOURI
NATIONAL WEATHER SERVICE SPRINGFIELD MO
800 AM CDT SAT OCT 21 2017

NOTE: "FAIR" INDICATES FEW OR NO CLOUDS BELOW 12,000 FEET WITH NO
       SIGNIFICANT WEATHER AND/OR OBSTRUCTIONS TO VISIBILITY.
       CURRENT SKY AND/OR WEATHER CONDITIONS ARE NOT AVAILABLE FOR
       CHILLICOTHE AND FARMINGTON.

MOZ001>031-035>038-043-044-053-054-211400-
...NORTHERN AND WESTERN MISSOURI...

CITY           SKY/WX    TMP DP  RH WIND       PRES   REMARKS
KANSAS CTY INT MOCLDY    65  59  81 S22G30    29.81S
LEE`S SUMMIT   CLOUDY    64  57  78 S17G31    29.86F
ST JOSEPH      LGT RAIN  67  60  78 S14G26    29.78S
CHILLICOTHE      N/A     64  57  78 S9        29.88S
KIRKSVILLE     MOCLDY    64  57  77 S14       29.92R

$$
MOZ066>068-077>081-088>096-101>105-211400-
...SOUTHWEST MISSOURI...

CITY           SKY/WX    TMP DP  RH WIND       PRES   REMARKS
SPRINGFIELD    PTCLDY    62  58  86 SE15      29.96R
JOPLIN         CLOUDY    66  62  87 S16       29.92S
BRANSON        PTCLDY    61  57  88 SE5       30.00S

$$
MOZ032>034-039>042-045>050-055>058-069>072-211400-
...CENTRAL MISSOURI...

CITY           SKY/WX    TMP DP  RH WIND       PRES   REMARKS
COLUMBIA       NOT AVBL
JEFFERSON CITY PTCLDY    64  54  69 SE6       29.98R
ROLLA          PTCLDY    66  58  75 S15G25    30.01S
SEDALIA        MOCLDY    65  59  81 S15       29.94R
WARRENSBURG    PTCLDY    63  54  72 S10G16    29.89S

$$
MOZ051-052-059>065-211400-
...EAST CENTRAL MISSOURI...

CITY           SKY/WX    TMP DP  RH WIND       PRES   REMARKS
ST LOUIS INTL  LGT RAIN  63  55  75 S10       30.04S

$$
MOZ072>076-082>087-097>100-106>115-211400-
...SOUTH CENTRAL AND SOUTHEAST MISSOURI...

CITY           SKY/WX    TMP DP  RH WIND       PRES   REMARKS
CAPE GIRARDEAU CLOUDY    60  50  69 S5        30.12R
POPLAR BLUFF   CLOUDY    56  54  93 CALM      30.11R
WEST PLAINS    CLOUDY    62  58  86 SE8       30.06F

$$



USA.gov is the U.S. government's official web portal to all federal, state and local government web resources and services.